Taunton, MA

5:28 PM EST on January 18, 2018 (GMT -0500)
Taunton Municipal

Weather History for KTAN - October, 2012

Change the Weather History Date:

Thursday, October 4, 2012

  Actual Average Record
Temperature  
Mean Temperature 62 °F -  
Max Temperature 64 °F 67 °F 86 °F (2007)
Min Temperature 60 °F 43 °F 28 °F (1974)
Degree Days  
Heating Degree Days 3    
Growing Degree Days 12 (Base 50)    
Moisture  
Dew Point 60 °F    
Average Humidity 92    
Maximum Humidity 97    
Minimum Humidity 87    
Precipitation  
Precipitation 0.04 in - - ()
Sea Level Pressure  
Sea Level Pressure 30.09 in    
Wind  
Wind Speed 3 mph (North)    
Max Wind Speed 9 mph    
Max Gust Speed -    
Visibility 5 miles    
Events Rain    
Averages and records for this station are not official NWS values.
T = Trace of Precipitation, MM = Missing Value Source: NWS Daily Summary

Daily Weather History Graph

Daily Weather History Graph

Search for Another Location

Airport or City:

Trip Planner

Search our weather history database for the weather conditions in past years. The results will help you decide how hot, cold, wet, or windy it might be!

Date:

Astronomy

Oct. 04, 2012 Rise Set
Actual Time 6:44 AM EDT 6:19 PM EDT
Civil Twilight 6:16 AM EDT 6:47 PM EDT
Nautical Twilight 5:44 AM EDT 7:19 PM EDT
Astronomical Twilight 5:12 AM EDT 7:52 PM EDT
Moon 8:49 PM EDT (10/4) 11:03 AM EDT (10/4)
Length of Visible Light 12h 30m
Length of Day
11h 35m
Waning Gibbous, 82% of the Moon is Illuminated
Oct 4
Waning Gibbous
Oct 8
Last Quarter
Oct 15
New
Oct 21
First Quarter
Oct 29
Full

Hourly Weather History & Observations

Time (EDT) Temp. Dew Point Humidity Pressure Visibility Wind Dir Wind Speed Gust Speed Precip Events Conditions
12:02 AM 61.0 °F 60.1 °F 97% 30.14 in 1.8 mi North 4.6 mph - N/A   Overcast
12:10 AM 61.0 °F 60.1 °F 97% 30.14 in 2.0 mi NNW 3.5 mph - N/A   Overcast
12:26 AM 61.0 °F 60.1 °F 97% 30.14 in 3.0 mi Calm Calm - 0.00 in Rain Light Rain
12:52 AM 61.0 °F 59.0 °F 93% 30.14 in 2.5 mi Calm Calm - 0.01 in   Overcast
1:26 AM 61.0 °F 60.1 °F 97% 30.13 in 4.0 mi Calm Calm - N/A   Overcast
1:52 AM 61.0 °F 60.1 °F 97% 30.14 in 5.0 mi Calm Calm - N/A   Overcast
2:52 AM 61.0 °F 59.0 °F 93% 30.13 in 5.0 mi Variable 3.5 mph - N/A   Overcast
3:52 AM 61.0 °F 59.0 °F 93% 30.13 in 7.0 mi NNE 4.6 mph - N/A   Overcast
4:52 AM 61.0 °F 59.0 °F 93% 30.13 in 8.0 mi North 3.5 mph - N/A   Overcast
5:52 AM 61.0 °F 59.0 °F 93% 30.14 in 6.0 mi Variable 3.5 mph - N/A   Overcast
6:52 AM 60.1 °F 57.9 °F 93% 30.14 in 3.0 mi North 5.8 mph - N/A   Overcast
7:52 AM 61.0 °F 57.9 °F 90% 30.14 in 6.0 mi Variable 4.6 mph - N/A   Overcast
8:52 AM 61.0 °F 59.0 °F 93% 30.14 in 3.0 mi NNE 4.6 mph - N/A   Overcast
9:52 AM 62.1 °F 59.0 °F 90% 30.14 in 9.0 mi Variable 4.6 mph - N/A   Overcast
10:52 AM 62.1 °F 59.0 °F 90% 30.14 in 10.0 mi North 3.5 mph - N/A   Overcast
11:52 AM 63.0 °F 59.0 °F 87% 30.13 in 9.0 mi NNW 4.6 mph - N/A   Overcast
12:36 PM 63.0 °F 60.1 °F 90% 30.13 in 10.0 mi NW 9.2 mph - N/A   Overcast
12:52 PM 64.0 °F 60.1 °F 87% 30.12 in 10.0 mi NNW 6.9 mph - N/A   Overcast
1:19 PM 64.0 °F 60.1 °F 87% 30.11 in 10.0 mi NNW 4.6 mph - N/A   Overcast
1:52 PM 64.0 °F 60.1 °F 87% 30.09 in 10.0 mi Variable 4.6 mph - N/A   Overcast
2:52 PM 64.0 °F 60.1 °F 87% 30.08 in 10.0 mi Calm Calm - N/A   Overcast
3:52 PM 64.0 °F 60.1 °F 87% 30.06 in 10.0 mi North 4.6 mph - N/A   Overcast
4:52 PM 63.0 °F 60.1 °F 90% 30.06 in 10.0 mi NNW 3.5 mph - N/A   Overcast
5:52 PM 63.0 °F 59.0 °F 87% 30.06 in 10.0 mi Calm Calm - N/A   Overcast
6:19 PM 63.0 °F 60.1 °F 90% 30.06 in 7.0 mi Calm Calm - N/A   Overcast
6:30 PM 63.0 °F 59.0 °F 87% 30.06 in 7.0 mi Calm Calm - N/A   Overcast
6:52 PM 62.1 °F 59.0 °F 90% 30.06 in 6.0 mi North 3.5 mph - N/A   Overcast
7:52 PM 62.1 °F 59.0 °F 90% 30.05 in 5.0 mi NW 3.5 mph - N/A   Overcast
8:03 PM 62.1 °F 59.0 °F 90% 30.05 in 5.0 mi North 3.5 mph - N/A   Overcast
9:09 PM 62.1 °F 59.0 °F 90% 30.05 in 2.5 mi Calm Calm - 0.00 in   Overcast
9:23 PM 62.1 °F 60.1 °F 93% 30.05 in 1.5 mi Calm Calm - 0.00 in Rain Light Rain
9:30 PM 61.0 °F 60.1 °F 97% 30.05 in 1.0 mi Calm Calm - 0.00 in Rain Light Rain
9:37 PM 61.0 °F 60.1 °F 97% 30.05 in 0.8 mi Calm Calm - 0.00 in Rain Light Rain
9:52 PM 61.0 °F 59.0 °F 93% 30.05 in 0.8 mi Calm Calm - 0.01 in Rain Light Rain
10:07 PM 61.0 °F 60.1 °F 97% 30.05 in 1.2 mi SE 3.5 mph - 0.00 in Rain Light Rain
10:16 PM 61.0 °F 60.1 °F 97% 30.05 in 1.5 mi Calm Calm - 0.00 in Rain Light Rain
10:52 PM 61.0 °F 60.1 °F 97% 30.04 in 2.5 mi Calm Calm - 0.01 in Rain Light Rain
11:03 PM 61.0 °F 59.0 °F 93% 30.03 in 3.0 mi Calm Calm - 0.00 in Rain Light Rain
11:52 PM 61.0 °F 60.1 °F 97% 30.03 in 3.0 mi Calm Calm - 0.01 in Rain Light Rain